Wind_Speed
45 43 41 39 39 40 31 27 31 28 28 26 32 28 22 24 19 16 10 12 11 4 5 4 7 11 13 14 13 10 6 3 2 2 2 4 5 7 5 2 2 5 6 6 5 4 5 5 7
43 45 45 45 46 44 33 26 29 35 33 33 34 35 33 26 22 17 18 12 13 8 10 6 7 12 14 14 14 12 9 6 4 4 6 8 8 6 4 3 5 5 6 6 6 5 5 6 8
42 45 45 49 51 47 32 27 29 35 39 40 39 38 36 31 29 24 17 16 13 15 13 7 10 10 15 16 16 15 12 9 8 8 9 10 8 6 5 6 6 8 7 5 5 6 6 7 9
44 44 43 48 49 43 33 30 33 33 43 45 45 44 41 38 29 31 25 17 17 14 16 11 14 12 14 18 18 17 14 11 10 10 11 10 8 7 7 7 9 9 8 6 6 8 9 10 11
45 47 46 42 41 36 36 35 38 39 42 47 50 50 43 37 32 23 30 23 20 19 22 16 12 14 14 15 17 15 14 12 11 12 13 12 10 9 8 9 9 8 9 10 9 10 12 13 14
42 43 47 45 34 29 37 41 42 42 41 49 53 52 49 43 40 34 23 26 24 21 25 19 14 16 19 16 17 16 14 13 12 10 10 11 11 10 10 10 10 10 10 11 12 13 15 16 17
41 43 43 44 43 38 35 42 48 45 45 48 57 54 52 46 41 40 36 23 24 22 23 21 19 16 19 19 18 17 15 14 12 12 13 13 13 13 13 12 13 13 13 14 15 15 16 17 18
35 39 43 39 38 36 35 39 50 50 48 52 54 54 54 52 48 45 40 37 28 23 24 24 22 25 25 23 19 16 15 15 14 14 14 15 15 15 14 15 15 16 16 17 18 19 19 19 19
32 34 32 34 37 36 33 36 44 53 51 52 55 54 52 54 52 48 46 41 35 33 30 26 26 28 30 33 28 20 18 17 16 15 16 17 17 18 17 18 18 20 19 20 21 23 24 24 24
32 29 27 27 31 37 37 38 39 49 55 53 56 57 55 53 54 52 51 49 46 34 30 28 29 30 30 31 32 31 25 22 20 21 22 24 26 24 22 22 22 22 22 21 23 24 24 26 27
35 31 28 26 29 32 34 42 41 43 52 57 58 60 58 56 55 53 52 55 54 50 45 41 34 34 34 33 31 30 30 27 28 28 29 31 32 31 30 27 27 27 25 25 27 28 28 28 27
39 38 33 30 31 33 32 39 44 45 48 54 59 62 59 57 59 57 55 53 51 51 49 45 41 37 35 33 30 34 33 31 30 33 35 38 38 36 37 34 33 32 31 31 31 32 32 32 29
42 40 39 35 35 34 33 33 41 49 51 53 57 63 64 57 61 62 57 51 49 47 41 37 38 39 37 42 29 43 42 35 35 38 42 43 43 42 41 40 41 39 37 37 38 36 37 37 33
45 43 43 43 40 38 35 34 38 42 50 52 55 57 63 65 59 63 62 53 52 48 47 43 37 42 39 38 40 42 34 34 44 49 48 53 48 46 44 45 46 46 46 45 44 43 43 43 39
53 51 48 46 45 43 41 36 36 41 46 50 52 53 56 62 65 63 62 61 55 52 50 48 39 31 36 39 35 40 44 42 47 47 49 54 62 54 49 53 47 48 51 54 54 54 50 51 49
56 54 51 48 48 45 42 37 37 40 44 45 48 52 55 56 58 63 64 63 60 60 59 55 51 50 45 45 38 40 44 44 42 45 47 49 51 52 53 64 61 55 51 57 63 44 58 58 52
59 53 51 51 48 45 44 43 31 37 36 43 47 49 51 55 56 57 60 63 62 61 61 59 53 51 50 49 39 37 40 41 39 40 43 42 45 50 55 60 55 65 55 65 57 62 56 60 59
58 54 54 51 44 45 42 44 32 35 37 37 45 48 49 51 54 55 55 57 58 59 59 55 45 41 41 38 40 41 40 39 42 41 39 41 48 44 52 43 46 56 66 63 43 47 55 56 56
55 55 51 47 43 46 46 46 39 34 38 35 40 47 49 49 53 55 55 57 55 51 50 48 43 41 42 42 40 41 40 40 42 42 43 46 47 48 47 49 51 54 55 53 50 50 50 40 44
59 56 55 49 40 43 47 45 42 33 39 36 37 44 48 49 52 55 56 55 56 54 51 51 48 47 47 45 44 42 43 45 46 46 46 47 49 51 48 48 48 51 45 50 51 43 45 48 53
61 59 56 49 39 42 46 45 39 37 39 39 39 44 47 48 50 56 60 59 58 58 56 54 54 51 50 47 46 45 46 47 47 49 45 47 50 49 49 50 50 55 48 51 53 48 47 40 28
62 58 53 46 38 42 47 46 38 39 38 36 36 39 44 43 46 51 58 63 64 63 62 60 59 57 56 49 45 47 47 49 49 50 46 46 47 47 47 49 47 47 47 44 49 45 38 38 30
55 50 45 38 37 40 44 45 38 38 32 29 33 36 40 43 44 49 54 56 58 58 61 64 63 59 57 56 54 57 56 55 53 52 50 49 48 50 48 45 41 41 38 41 44 44 48 37 43
46 42 43 37 41 45 44 45 37 38 33 32 31 34 36 38 38 39 44 51 53 55 54 51 53 55 57 57 55 55 55 53 52 51 50 54 58 55 50 44 42 37 36 38 38 38 44 43 44
50 48 46 43 46 47 42 47 39 37 34 30 29 28 31 34 32 35 37 38 41 44 46 48 49 49 50 50 49 49 49 49 49 49 44 44 45 43 43 40 38 38 40 41 43 40 39 47 52
55 53 53 54 52 51 46 48 42 39 37 29 28 29 31 30 28 32 31 32 33 34 36 35 34 39 41 41 42 40 32 30 29 29 34 39 39 41 41 42 36 38 37 46 39 40 41 43 46
49 50 50 51 49 48 45 46 45 37 29 30 30 28 29 27 28 28 28 28 28 25 24 29 31 30 26 26 23 22 24 26 28 30 31 34 42 44 41 39 41 38 41 42 42 43 52 52 50
48 45 49 49 49 48 45 44 45 37 28 29 30 30 28 25 27 25 25 24 22 23 23 22 22 21 19 20 21 23 25 27 26 28 32 36 40 44 46 41 43 46 47 42 40 41 44 47 50
48 46 49 48 47 47 45 46 45 34 32 29 30 26 25 28 27 24 24 23 24 24 17 18 20 21 21 24 25 28 30 29 28 31 30 27 29 27 28 36 39 39 40 36 38 41 41 44 47
46 48 50 46 46 44 41 46 41 36 34 29 28 26 24 22 21 22 23 23 25 25 24 26 23 22 23 24 24 24 26 29 32 32 32 32 33 31 31 31 29 34 37 40 39 42 45 48 52
Wind_Direction
239 237 237 240 241 244 229 214 209 214 230 239 234 225 225 229 225 212 200 206 197 169 185 223 226 235 224 224 222 220 200 184 216 154 147 139 132 140 143 192 304 329 325 322 312 301 315 326 327
238 239 236 237 239 240 239 222 216 216 228 238 242 234 228 224 229 234 233 232 213 208 194 205 229 233 233 227 230 224 221 213 208 169 160 155 152 163 197 253 291 309 311 307 298 301 301 307 314
236 238 237 237 237 235 237 237 227 217 228 237 241 242 237 233 228 243 228 217 208 211 204 221 227 233 235 233 231 231 229 222 192 176 163 157 169 187 225 268 292 302 305 292 275 280 280 294 306
234 238 240 241 241 237 234 233 234 223 224 236 240 245 246 241 237 244 245 226 228 220 219 227 234 233 234 236 233 231 234 218 193 181 169 173 192 225 259 283 297 304 303 283 277 276 274 281 293
235 235 238 239 240 236 231 226 234 229 227 231 242 243 244 247 246 240 240 238 228 234 241 235 234 241 241 240 237 225 220 218 203 191 189 199 216 238 250 267 282 288 289 284 281 275 272 278 285
241 240 237 237 239 232 227 220 225 228 227 233 237 243 247 244 247 244 238 235 235 243 247 256 248 239 239 242 244 235 225 221 220 223 228 232 238 245 255 266 277 283 285 285 280 275 273 278 284
245 244 242 238 233 231 225 219 221 222 220 232 237 239 245 245 247 251 250 241 227 237 247 265 259 241 239 237 245 243 239 239 237 242 251 254 254 256 261 270 276 278 283 282 277 275 272 275 283
248 247 243 242 237 230 230 220 216 221 218 226 239 240 243 247 246 247 252 254 242 234 234 247 254 252 250 239 237 242 247 255 251 248 251 257 264 265 268 268 271 277 279 283 286 284 279 280 281
248 250 248 245 241 237 233 228 220 220 221 227 237 241 242 246 249 250 250 252 254 246 240 243 249 254 257 260 250 238 244 251 252 255 263 269 269 272 274 278 282 282 283 285 288 290 291 287 283
250 252 253 251 246 239 235 233 225 223 223 225 231 241 241 241 245 247 250 250 252 253 246 249 258 251 248 250 253 249 241 244 252 259 263 267 268 268 272 273 276 280 283 286 287 286 287 284 283
254 249 254 245 243 240 231 230 232 227 226 226 229 234 239 241 242 243 245 247 248 251 252 258 268 256 246 239 242 250 256 257 259 258 261 264 269 270 269 271 275 276 279 281 284 284 280 280 282
245 246 248 247 243 240 232 227 229 232 230 231 230 233 236 241 243 245 244 246 249 253 257 260 268 255 238 247 249 254 249 251 258 265 268 270 268 267 269 274 277 275 274 277 280 281 280 279 278
241 241 242 246 250 247 241 230 225 230 229 233 234 233 235 237 243 245 246 250 253 254 255 256 252 254 239 281 256 250 242 243 250 284 263 264 262 264 271 273 274 275 275 277 278 279 278 275 276
236 239 243 249 251 252 250 240 228 229 231 231 233 236 237 238 239 247 249 246 251 253 254 251 246 251 266 255 281 259 237 249 271 278 269 260 254 252 260 266 269 274 274 273 273 273 275 272 270
241 241 244 247 247 247 246 241 241 232 234 232 234 237 238 238 241 244 248 250 249 250 250 251 248 252 265 263 267 252 247 244 271 271 270 260 260 257 251 256 256 261 266 269 276 272 269 267 262
241 243 240 240 245 249 248 249 246 241 238 240 236 237 239 243 242 242 247 251 251 252 256 257 255 255 256 261 267 258 255 262 267 273 266 265 264 262 273 258 261 263 263 271 274 296 297 279 268
240 237 240 239 242 249 250 252 244 245 239 237 239 239 240 242 245 245 244 247 252 255 256 258 260 259 263 267 255 257 255 258 267 271 265 260 264 270 273 268 272 271 279 277 280 272 286 288 275
236 239 243 250 254 254 249 251 245 242 241 236 235 237 239 243 247 245 246 247 249 253 257 261 260 255 258 256 255 257 261 263 266 264 266 267 263 277 279 277 273 281 269 270 288 282 273 285 285
244 247 251 250 249 247 244 246 242 231 235 232 232 235 236 239 242 245 246 250 251 252 258 261 259 258 258 259 260 262 265 268 269 271 268 270 272 268 266 275 276 279 277 275 282 287 278 293 295
241 243 246 250 244 243 245 242 242 230 236 231 230 230 234 234 239 244 245 248 252 253 253 258 260 262 262 263 266 268 269 269 269 268 268 267 270 270 273 275 275 275 276 277 278 291 282 288 285
236 239 243 245 239 237 242 241 239 233 233 234 233 229 231 234 237 243 243 244 248 252 254 256 260 263 265 269 270 269 270 269 269 270 269 268 269 272 273 273 273 274 270 274 283 288 285 285 256
233 236 239 237 231 231 238 240 233 232 234 236 234 236 235 237 239 242 245 248 246 249 255 259 264 268 272 276 269 271 270 272 273 276 281 280 278 273 273 271 271 275 273 271 271 277 268 269 277
227 229 232 229 228 226 234 240 231 234 227 226 233 235 238 241 244 242 243 245 250 252 254 259 265 268 268 271 273 277 277 274 273 275 280 285 277 279 281 282 274 276 279 273 270 261 268 268 265
222 218 219 218 218 222 226 233 224 229 224 220 223 228 235 238 241 244 245 248 256 257 256 256 259 263 267 269 271 270 272 273 276 280 278 280 280 287 289 283 280 276 269 267 265 262 262 257 254
213 208 209 206 213 222 217 227 222 222 224 218 223 224 230 234 235 239 241 243 245 251 255 257 257 260 262 264 265 267 269 271 277 281 288 289 290 288 282 266 267 267 271 266 265 260 262 257 263
207 205 204 207 212 214 206 218 218 216 218 214 217 220 223 224 220 228 235 239 246 249 249 251 252 256 260 264 267 267 276 280 284 293 293 287 286 284 281 269 264 270 267 262 261 266 273 274 268
203 205 205 205 211 213 210 217 222 218 217 215 216 217 222 226 228 226 231 233 234 241 244 249 251 263 264 258 263 275 277 278 291 286 292 294 291 285 282 267 265 261 261 266 272 270 265 268 268
207 204 195 203 207 212 209 216 221 217 209 211 214 219 224 230 232 227 223 225 233 240 251 249 250 257 266 268 271 276 280 281 288 286 289 297 301 286 280 271 280 273 270 272 271 268 267 269 270
198 199 200 203 205 214 212 213 216 211 211 215 224 225 227 231 230 222 230 232 236 240 242 241 243 250 263 273 275 281 289 291 294 298 297 298 303 299 291 282 273 264 267 267 275 275 274 275 275
203 196 197 202 203 212 214 213 212 214 214 214 228 229 225 230 237 240 238 236 238 234 243 241 250 258 269 280 288 286 282 292 294 290 290 293 292 293 291 285 279 275 276 271 272 276 272 272 274
Height
5851 5857 5862 5866 5869 5868 5877 5885 5887 5886 5883 5880 5882 5885 5888 5888 5890 5894 5895 5895 5895 5896 5898 5901 5903 5906 5908 5909 5910 5912 5912 5912 5913 5913 5914 5915 5917 5918 5918 5919 5920 5920 5920 5920 5920 5919 5919 5919 5917
5844 5848 5854 5858 5859 5863 5875 5881 5883 5883 5880 5877 5876 5880 5882 5885 5889 5891 5893 5895 5896 5896 5897 5899 5901 5904 5906 5907 5909 5911 5912 5911 5912 5913 5914 5915 5916 5918 5919 5919 5919 5919 5919 5919 5919 5919 5919 5918 5917
5838 5840 5844 5848 5851 5857 5873 5878 5878 5879 5876 5874 5874 5875 5879 5884 5887 5888 5889 5891 5893 5894 5896 5897 5899 5901 5903 5905 5906 5908 5909 5910 5910 5911 5913 5914 5916 5916 5917 5918 5919 5919 5919 5918 5918 5918 5917 5917 5916
5831 5833 5836 5838 5845 5860 5868 5871 5872 5873 5869 5869 5870 5872 5874 5878 5884 5886 5888 5890 5891 5893 5894 5896 5897 5899 5900 5903 5904 5905 5906 5908 5908 5909 5911 5913 5915 5916 5917 5918 5918 5918 5918 5918 5917 5917 5916 5915 5915
5823 5826 5828 5832 5841 5855 5860 5864 5864 5866 5866 5865 5863 5866 5872 5875 5879 5883 5886 5888 5890 5891 5893 5895 5897 5899 5900 5901 5902 5902 5904 5906 5907 5907 5908 5910 5912 5913 5915 5915 5915 5915 5915 5916 5916 5916 5915 5914 5913
5817 5819 5822 5828 5838 5846 5848 5853 5854 5858 5860 5857 5857 5861 5865 5872 5873 5878 5883 5884 5887 5889 5890 5893 5895 5898 5899 5900 5901 5902 5902 5904 5906 5908 5909 5910 5910 5911 5912 5912 5913 5913 5912 5913 5913 5913 5912 5911 5910
5810 5812 5816 5822 5830 5835 5839 5842 5846 5847 5852 5849 5848 5857 5861 5866 5870 5873 5878 5881 5885 5887 5889 5891 5894 5896 5897 5898 5900 5900 5901 5903 5904 5905 5907 5908 5909 5909 5909 5910 5910 5910 5910 5910 5909 5909 5909 5909 5909
5803 5804 5809 5815 5822 5829 5830 5833 5836 5838 5842 5841 5842 5850 5856 5859 5864 5868 5873 5877 5881 5883 5885 5888 5891 5894 5895 5896 5897 5898 5900 5902 5903 5904 5905 5905 5906 5907 5907 5907 5907 5906 5906 5906 5907 5906 5905 5906 5906
5796 5798 5803 5809 5815 5819 5822 5824 5828 5830 5833 5837 5838 5842 5849 5853 5857 5863 5868 5872 5875 5879 5881 5883 5886 5889 5892 5895 5896 5897 5898 5900 5901 5901 5902 5903 5904 5904 5904 5905 5905 5904 5903 5903 5903 5902 5902 5902 5901
5791 5794 5797 5803 5805 5807 5812 5816 5820 5823 5825 5829 5831 5833 5839 5845 5849 5855 5861 5865 5869 5873 5878 5881 5884 5884 5888 5891 5893 5895 5896 5896 5897 5898 5899 5899 5900 5901 5901 5901 5901 5901 5900 5900 5899 5897 5897 5896 5895
5785 5788 5789 5792 5794 5797 5802 5807 5810 5817 5820 5822 5822 5826 5829 5837 5841 5847 5852 5855 5859 5867 5872 5876 5879 5881 5883 5885 5888 5891 5892 5894 5894 5894 5894 5895 5896 5896 5897 5897 5897 5896 5895 5894 5893 5893 5892 5891 5891
5775 5779 5782 5784 5785 5789 5794 5799 5805 5808 5813 5812 5816 5818 5824 5828 5833 5838 5843 5848 5854 5859 5863 5870 5873 5876 5879 5883 5885 5886 5886 5887 5888 5889 5890 5890 5890 5890 5890 5891 5891 5891 5889 5888 5888 5887 5887 5886 5886
5766 5771 5773 5775 5776 5781 5786 5793 5795 5796 5801 5805 5809 5813 5817 5821 5823 5827 5836 5843 5847 5853 5857 5861 5866 5869 5871 5873 5875 5876 5876 5879 5881 5881 5882 5883 5882 5883 5884 5884 5883 5883 5882 5882 5881 5880 5879 5880 5880
5757 5761 5764 5768 5769 5772 5778 5784 5786 5789 5791 5796 5800 5806 5812 5816 5818 5820 5825 5836 5840 5844 5850 5855 5861 5863 5866 5867 5866 5866 5868 5873 5873 5873 5874 5874 5873 5873 5875 5875 5875 5875 5874 5872 5872 5872 5871 5871 5871
5745 5750 5755 5759 5761 5764 5768 5775 5779 5782 5782 5786 5793 5798 5802 5806 5812 5817 5822 5827 5833 5834 5840 5847 5855 5857 5859 5860 5860 5860 5861 5864 5865 5863 5863 5864 5863 5865 5864 5865 5864 5864 5864 5864 5864 5862 5861 5861 5858
5734 5739 5743 5748 5751 5756 5761 5767 5771 5773 5777 5780 5786 5791 5795 5799 5804 5808 5813 5818 5824 5829 5832 5838 5845 5850 5853 5852 5854 5855 5857 5857 5855 5853 5854 5854 5855 5856 5856 5856 5854 5853 5854 5854 5854 5851 5851 5852 5850
5722 5726 5732 5737 5742 5746 5751 5755 5764 5764 5768 5773 5777 5783 5789 5793 5797 5801 5805 5809 5815 5819 5823 5829 5836 5840 5843 5844 5845 5847 5848 5847 5845 5844 5844 5844 5846 5845 5845 5846 5846 5844 5847 5846 5846 5844 5842 5842 5839
5710 5717 5722 5731 5740 5738 5742 5745 5754 5754 5759 5764 5769 5774 5780 5786 5789 5795 5797 5800 5805 5810 5814 5819 5825 5829 5832 5835 5836 5837 5837 5836 5837 5837 5836 5836 5836 5835 5838 5832 5836 5838 5835 5836 5836 5832 5831 5830 5828
5702 5708 5714 5720 5726 5728 5730 5733 5741 5746 5748 5753 5759 5765 5771 5777 5780 5784 5790 5792 5796 5801 5806 5811 5816 5819 5821 5824 5827 5827 5827 5828 5828 5828 5828 5828 5826 5827 5826 5825 5825 5825 5827 5825 5825 5822 5820 5817 5816
5688 5695 5701 5707 5715 5718 5720 5724 5730 5738 5739 5744 5751 5756 5761 5766 5770 5775 5781 5787 5790 5794 5799 5802 5806 5809 5811 5814 5815 5816 5817 5818 5817 5818 5818 5819 5816 5815 5815 5817 5818 5816 5817 5816 5815 5811 5806 5801 5803
5676 5683 5689 5696 5703 5707 5711 5716 5722 5729 5732 5736 5743 5749 5754 5759 5765 5767 5771 5777 5782 5785 5790 5794 5796 5800 5802 5803 5804 5805 5806 5807 5807 5807 5807 5807 5805 5804 5806 5806 5806 5807 5805 5804 5800 5799 5795 5792 5794
5660 5669 5677 5684 5690 5697 5701 5708 5715 5719 5724 5730 5735 5742 5748 5754 5759 5763 5765 5769 5773 5778 5781 5785 5788 5791 5791 5792 5793 5793 5794 5794 5795 5794 5795 5794 5794 5795 5795 5794 5794 5792 5791 5791 5790 5788 5787 5789 5788
5647 5658 5668 5675 5679 5688 5694 5701 5708 5711 5719 5724 5729 5735 5742 5747 5751 5756 5759 5761 5763 5767 5773 5775 5778 5781 5783 5784 5784 5783 5782 5782 5782 5783 5782 5781 5781 5782 5782 5783 5782 5781 5782 5780 5780 5779 5780 5778 5779
5636 5648 5656 5661 5668 5677 5685 5692 5702 5704 5711 5717 5723 5728 5735 5741 5744 5747 5750 5754 5756 5759 5764 5767 5768 5769 5772 5773 5774 5774 5773 5772 5771 5770 5770 5767 5765 5767 5767 5769 5769 5771 5770 5768 5767 5767 5768 5768 5765
5619 5631 5641 5649 5657 5669 5679 5682 5693 5699 5705 5713 5719 5724 5729 5734 5738 5740 5743 5746 5749 5752 5755 5758 5760 5761 5762 5764 5765 5765 5763 5762 5763 5762 5759 5756 5756 5755 5755 5756 5755 5758 5759 5758 5759 5757 5755 5755 5754
5607 5619 5628 5635 5646 5657 5667 5673 5683 5692 5699 5709 5714 5718 5723 5727 5732 5734 5737 5740 5743 5745 5747 5749 5751 5752 5754 5754 5755 5756 5756 5754 5753 5752 5751 5749 5746 5746 5744 5746 5746 5745 5746 5748 5746 5745 5744 5745 5743
5601 5613 5628 5634 5645 5653 5663 5671 5678 5687 5698 5703 5707 5712 5717 5721 5726 5730 5732 5735 5737 5739 5741 5741 5743 5745 5747 5747 5747 5747 5747 5747 5746 5745 5744 5742 5739 5737 5736 5735 5736 5735 5735 5736 5736 5735 5734 5731 5731
5602 5615 5619 5630 5640 5647 5659 5667 5673 5683 5692 5697 5702 5707 5712 5717 5720 5723 5726 5729 5731 5733 5734 5735 5738 5740 5740 5741 5740 5740 5740 5741 5740 5738 5736 5732 5727 5725 5726 5726 5725 5725 5726 5726 5725 5723 5723 5722 5721
5593 5602 5617 5627 5637 5643 5654 5662 5669 5680 5686 5692 5696 5702 5707 5711 5714 5718 5720 5723 5724 5725 5727 5729 5731 5732 5732 5734 5734 5734 5733 5733 5732 5730 5728 5726 5722 5718 5714 5714 5714 5714 5714 5714 5714 5712 5710 5710 5708
5591 5601 5612 5622 5632 5639 5648 5659 5666 5674 5682 5687 5692 5697 5702 5706 5710 5713 5715 5717 5718 5720 5721 5722 5723 5726 5728 5728 5727 5727 5726 5724 5723 5721 5719 5717 5715 5712 5710 5708 5706 5707 5706 5705 5703 5701 5699 5698 5696